Temperature
25 24 24 23 22 21 23 24 25 24 24 23 23 23 22 21 20 18 19 19 20 19 19 19 19 19 19 19 19 18 18 19 18 18 18 18 18 18 18 18 18 18 18 18 18 18 18 18 18
25 25 24 23 22 21 23 24 24 24 24 23 23 22 22 20 19 19 19 19 20 20 19 19 19 19 19 19 19 18 18 19 18 18 18 18 18 18 18 18 18 18 18 18 18 18 18 18 18
25 25 24 22 23 22 24 25 25 25 24 24 23 23 22 21 20 19 19 20 20 20 19 19 19 19 19 19 19 19 19 18 18 18 18 18 18 18 18 18 18 18 18 18 18 18 18 18 18
25 24 24 23 24 25 25 25 25 25 24 24 23 22 22 21 20 20 20 20 20 20 20 19 19 19 19 19 19 19 18 18 18 18 18 18 18 18 18 18 18 18 18 18 18 18 18 18 18
26 25 23 23 25 26 26 26 26 24 24 23 22 22 21 21 21 20 20 20 20 20 20 20 19 19 19 19 19 19 18 18 18 18 18 18 18 18 18 18 18 18 18 18 18 18 18 18 18
26 24 23 23 26 26 26 26 25 24 23 23 22 21 21 21 21 20 20 20 20 20 20 20 19 19 19 19 19 19 19 19 18 18 18 18 18 18 18 18 18 18 18 18 18 18 18 18 18
26 24 24 25 26 26 26 26 25 24 23 23 23 21 21 21 21 21 21 20 20 20 20 20 19 19 19 19 19 19 19 19 19 18 18 18 18 18 18 18 18 18 18 18 18 18 18 18 18
28 24 25 25 25 26 27 26 25 25 24 23 23 22 21 21 21 21 20 20 20 20 20 20 20 19 19 19 19 19 19 19 19 19 18 18 18 18 18 18 18 18 18 18 18 18 18 18 18
29 24 24 25 25 26 27 26 26 25 24 24 24 23 22 22 21 21 20 20 20 20 20 20 19 19 19 19 19 19 19 18 18 18 18 18 18 18 18 18 18 18 18 18 18 18 18 18 18
28 25 26 27 27 26 27 26 26 25 24 23 23 23 22 22 22 21 21 20 20 20 20 20 19 19 19 19 19 19 18 18 18 18 18 18 18 18 18 18 18 18 18 18 18 18 18 18 18
28 27 28 29 29 28 27 27 26 24 23 23 23 22 22 22 22 21 21 21 20 20 20 20 20 19 19 19 19 19 19 18 18 18 18 18 18 18 18 18 18 18 18 18 18 18 18 18 18
29 29 30 29 29 28 27 27 26 25 24 24 24 23 23 22 22 22 21 21 21 20 20 20 20 19 19 19 19 19 19 19 19 18 18 18 18 18 18 18 18 18 18 18 18 18 18 18 18
29 29 30 30 29 29 28 27 26 25 25 24 24 23 23 23 22 22 22 21 21 20 20 20 20 19 19 19 19 19 19 19 19 18 18 18 18 18 18 18 18 18 18 18 18 18 18 18 18
29 29 30 30 29 29 27 26 26 25 25 24 24 23 23 23 23 22 22 21 21 21 20 20 20 20 19 19 19 19 19 19 19 19 18 18 18 18 18 18 18 18 18 18 18 18 18 18 18
30 28 28 28 29 28 27 26 25 25 25 25 24 24 23 23 23 23 22 22 21 21 20 20 20 20 20 19 19 19 19 19 19 19 19 19 19 18 18 18 18 18 18 18 18 18 18 18 18
28 26 26 28 28 28 26 24 26 26 25 25 24 24 24 23 23 23 22 22 22 21 21 20 20 20 20 20 19 19 19 19 19 19 19 19 19 19 18 18 18 18 18 18 18 18 18 18 18
26 25 26 27 28 28 26 24 26 26 25 25 25 24 24 24 23 23 23 22 22 21 21 20 20 20 20 20 19 19 19 19 19 19 19 19 19 19 19 19 18 18 18 18 18 18 18 18 18
26 26 27 27 28 28 26 25 26 26 26 25 25 25 24 24 24 23 23 23 22 22 21 21 20 20 20 20 19 19 19 19 19 19 19 19 19 19 18 18 18 18 18 18 18 18 18 18 18
28 27 27 28 29 27 26 25 26 26 26 25 25 25 25 24 24 24 23 23 22 22 21 21 21 20 20 20 20 19 19 19 19 19 19 19 19 19 18 18 18 18 18 18 18 18 18 18 18
28 28 27 28 29 27 26 26 26 26 26 26 25 25 25 24 24 24 23 23 23 22 22 21 21 20 20 20 20 20 19 19 19 19 19 19 19 19 19 18 18 18 18 18 18 18 18 18 18
29 28 28 27 28 27 26 25 25 26 26 26 26 25 25 25 24 24 24 23 23 23 22 22 21 21 20 20 20 19 19 19 19 19 19 19 19 19 19 19 19 18 18 18 18 18 18 18 18
28 29 29 28 26 24 25 23 24 24 24 25 25 25 25 25 25 25 24 24 23 23 23 22 21 21 21 20 20 20 20 19 19 19 19 19 19 19 19 19 18 18 18 18 18 18 18 18 17
29 30 29 28 25 24 24 23 23 23 24 24 25 26 26 26 25 25 25 24 24 23 23 22 22 21 21 20 20 20 20 19 19 19 19 19 19 18 18 18 18 18 18 18 18 18 17 17 17
30 28 26 23 22 23 24 23 23 22 24 25 25 26 26 26 26 25 25 25 24 24 23 22 22 22 21 21 20 20 20 20 19 19 19 19 19 18 18 18 18 18 18 18 18 18 17 17 17
28 24 23 24 22 23 23 23 23 24 25 25 25 26 26 26 26 26 25 25 24 24 23 23 22 22 21 21 21 20 20 20 20 19 19 19 19 19 18 18 18 18 18 18 17 17 17 17 17
27 24 23 24 23 22 23 23 24 25 26 27 27 26 26 27 26 26 26 25 25 24 24 23 23 22 22 21 21 21 20 20 20 20 19 19 19 19 18 18 18 18 18 18 17 17 17 17 17
28 25 24 22 22 22 23 23 24 25 25 26 26 26 26 26 26 26 26 26 25 25 24 24 23 23 22 22 21 21 20 20 20 20 19 19 19 19 18 18 18 18 18 17 17 17 17 17 17
28 26 22 22 22 23 23 23 23 24 25 25 25 25 26 26 26 26 26 26 25 25 25 24 24 23 23 22 22 21 21 20 20 20 19 19 19 19 19 18 18 18 18 17 17 17 17 17 17
28 27 23 21 21 22 22 23 25 24 24 24 25 26 26 26 26 26 26 26 25 25 24 24 23 23 23 22 22 21 21 20 20 20 20 19 19 19 18 18 18 18 18 17 17 17 17 17 17
27 26 23 23 22 21 21 22 25 25 25 25 26 26 26 26 26 26 26 25 25 25 24 24 24 23 23 22 22 21 21 20 20 20 20 19 19 19 18 18 18 18 17 17 17 16 16 16 16
Wind_Speed
10 8 4 1 4 5 7 7 10 10 7 9 12 11 11 8 6 8 4 9 9 6 7 9 11 12 12 13 13 14 14 15 15 16 16 16 17 18 18 19 18 18 19 19 19 19 19 19 20
6 5 1 3 5 6 6 8 12 12 12 13 13 14 12 9 9 9 6 9 9 8 8 10 12 12 12 13 13 14 15 15 16 16 16 16 17 18 18 18 18 18 18 18 18 18 18 18 18
5 3 2 3 4 6 7 10 14 14 12 10 7 8 6 7 9 7 8 11 9 8 9 11 12 12 12 13 13 13 14 15 15 16 16 17 17 17 17 17 17 18 18 18 17 17 18 17 17
3 2 3 4 6 6 10 12 14 15 11 10 10 8 5 7 6 10 13 12 11 7 9 11 12 12 12 12 12 13 13 14 15 15 16 16 17 16 16 16 16 17 17 16 16 17 16 16 15
2 3 5 6 8 9 11 13 14 13 7 10 12 10 7 6 13 16 14 13 11 7 8 11 13 12 12 12 12 12 13 14 14 15 15 15 16 16 15 15 16 16 15 15 15 15 15 14 14
3 3 5 6 8 9 10 13 15 16 16 14 13 10 5 8 13 14 14 12 11 10 9 11 12 12 12 11 11 12 12 13 14 14 14 14 15 15 14 14 14 14 14 14 13 13 12 12 11
4 4 4 7 8 9 9 11 13 14 14 10 11 8 5 8 11 14 13 12 10 10 8 8 9 11 11 11 11 11 11 12 13 13 13 13 14 14 13 13 13 13 12 12 11 11 10 9 8
5 4 5 6 8 7 9 9 11 14 11 13 9 8 7 9 11 13 12 11 9 7 7 6 7 8 8 8 9 10 10 10 11 11 11 11 12 12 12 11 11 11 11 10 9 9 8 6 6
4 5 5 6 8 7 11 13 9 10 12 8 6 9 11 14 14 13 10 8 8 8 6 6 6 7 8 7 8 8 8 8 8 9 10 9 7 8 8 9 10 10 9 8 7 7 5 4 4
5 6 7 7 9 10 13 15 11 9 13 11 12 12 13 13 13 12 11 10 9 8 7 6 6 6 7 7 7 5 5 5 6 6 7 6 6 6 7 8 8 8 8 7 6 4 3 2 1
6 7 7 8 10 11 12 11 9 12 10 14 17 15 13 13 11 11 9 10 9 9 8 6 6 6 6 4 6 4 3 4 4 5 6 5 5 4 4 4 4 5 5 4 3 3 2 2 2
8 7 8 8 10 11 11 9 9 10 12 15 16 15 12 13 11 10 9 8 8 8 8 7 6 5 5 6 5 5 4 4 4 5 7 6 3 3 3 3 4 4 4 3 3 3 3 3 4
9 6 7 9 11 11 12 12 11 11 15 15 15 14 13 12 11 9 9 9 8 8 7 7 6 6 5 5 3 4 4 4 5 5 7 7 4 3 3 2 3 4 5 4 3 3 3 3 3
6 7 7 9 11 12 15 11 9 13 16 15 14 13 13 12 12 10 9 8 8 8 8 7 6 6 6 4 3 3 4 5 5 5 6 7 6 4 3 3 2 3 4 5 4 4 3 2 2
5 7 5 5 8 8 13 8 11 16 16 15 13 12 12 11 12 12 12 10 10 9 8 7 7 5 5 5 4 3 4 5 4 4 6 7 7 5 4 3 2 3 4 4 3 2 1 1 1
4 5 2 3 6 7 10 8 10 14 15 13 13 12 11 10 12 12 12 11 10 10 9 7 7 6 5 4 3 3 3 4 4 5 5 7 7 6 4 2 2 2 2 2 2 1 1 1 1
3 3 4 4 6 7 6 7 11 12 15 13 12 12 12 11 10 11 12 12 11 11 10 7 7 7 5 4 3 3 3 3 4 4 4 5 5 5 4 2 2 2 1 1 1 1 2 1 1
4 4 5 6 6 6 5 7 13 14 14 14 12 12 12 13 12 12 12 12 11 10 10 8 7 7 5 4 2 2 2 1 2 3 4 5 4 5 4 2 2 2 1 1 1 1 1 2 2
6 5 5 5 5 6 6 9 13 14 13 13 12 12 12 12 11 11 12 12 11 9 9 8 7 6 5 3 3 2 1 1 1 2 4 5 4 4 3 2 2 2 2 2 2 1 1 1 2
5 5 3 1 4 6 5 7 12 13 16 16 15 14 14 11 10 11 11 11 11 10 9 8 8 7 6 4 3 3 2 2 2 1 2 4 4 4 3 3 2 2 2 1 1 2 2 1 2
4 6 6 5 2 4 6 0 6 7 8 10 12 12 14 16 16 14 13 12 12 11 11 10 8 7 7 6 3 2 2 1 1 1 1 2 3 3 3 3 2 2 2 2 1 2 3 2 1
5 5 8 7 6 1 4 2 5 6 6 10 12 12 14 14 14 14 14 13 13 13 11 9 9 8 7 6 5 5 4 3 3 2 2 2 2 3 3 2 2 2 2 2 2 2 2 3 2
6 6 6 6 5 2 2 3 6 4 7 10 12 14 14 15 16 16 16 15 14 13 11 9 9 7 7 7 7 6 4 3 2 2 2 1 1 1 2 2 2 2 2 2 2 2 2 2 2
6 6 7 6 5 1 4 4 5 6 11 10 10 12 13 14 15 15 14 12 11 11 11 10 9 8 7 7 7 7 6 5 4 3 3 2 1 0 1 2 2 2 2 2 2 2 2 2 1
5 7 4 4 4 4 4 3 8 9 10 12 11 11 13 15 15 15 14 14 13 13 12 11 10 9 8 8 7 7 7 6 6 5 4 4 2 1 1 1 1 1 2 2 2 2 2 1 1
4 10 8 5 5 4 2 4 7 7 8 8 8 10 10 12 13 15 15 15 15 15 14 13 12 10 9 9 8 7 6 5 4 5 5 4 3 3 3 2 2 2 2 2 2 2 1 1 0
4 4 10 8 4 1 3 4 6 2 2 4 6 7 10 11 12 13 13 14 14 15 15 14 13 10 10 10 8 7 7 6 6 5 4 4 3 3 3 3 2 2 2 2 2 1 0 1 1
8 8 6 6 6 3 3 3 5 5 4 4 6 8 8 9 9 9 9 11 13 13 13 13 13 12 10 10 9 8 7 7 6 5 5 5 4 3 4 3 2 2 2 2 2 1 0 1 0
1 4 5 5 7 7 3 6 7 10 9 10 9 9 9 10 11 10 10 10 10 11 11 12 11 10 9 9 8 7 7 7 6 6 6 5 4 4 4 3 3 3 2 2 2 1 1 2 1
6 6 7 6 4 6 6 7 7 10 9 10 10 8 8 8 9 9 9 9 10 10 11 11 11 11 10 9 8 7 7 7 7 6 6 5 5 4 4 4 3 3 2 2 2 1 2 2 2
Wind_Direction
166 167 162 132 57 58 85 90 96 85 68 68 78 82 81 70 94 120 148 134 132 126 115 106 100 93 88 85 82 81 86 90 93 95 95 97 100 101 102 102 103 106 108 110 111 112 113 114 115
168 170 128 58 80 83 84 100 96 101 114 105 86 85 79 75 91 115 130 138 130 125 119 113 105 98 93 90 87 84 88 92 94 95 97 98 102 102 103 104 104 106 108 110 111 113 115 115 115
174 175 84 69 102 125 115 109 108 110 108 100 93 73 75 104 113 125 145 141 125 118 121 118 110 105 99 95 91 90 89 93 96 97 98 100 104 104 103 105 106 107 109 110 111 112 114 116 116
150 100 56 82 104 120 122 124 115 110 91 88 95 77 75 107 118 133 141 137 124 122 124 122 116 111 106 101 97 94 94 94 98 100 100 101 106 106 106 108 108 109 110 110 111 111 113 114 116
97 87 63 77 93 102 113 118 115 109 97 96 98 103 95 100 118 131 137 136 131 131 132 128 123 119 113 108 104 99 98 100 101 101 100 101 105 107 108 108 110 110 111 111 111 112 113 115 116
64 69 79 94 98 100 111 116 109 107 112 110 108 107 108 122 127 137 139 138 137 138 139 134 129 127 123 117 112 107 104 105 104 101 101 104 108 109 110 110 112 112 110 110 111 113 114 113 112
120 107 121 121 112 112 125 123 117 124 128 127 126 105 120 139 142 142 138 136 136 140 137 136 139 136 131 126 121 116 113 111 110 107 103 107 112 114 115 115 115 115 114 113 114 116 115 113 112
152 114 110 119 121 119 124 115 126 126 122 135 129 125 151 162 142 133 133 134 136 141 144 147 146 144 143 140 132 126 121 120 117 113 110 113 118 121 121 121 122 123 122 122 122 121 120 121 123
133 96 130 148 138 134 119 109 111 113 122 130 113 130 150 142 131 127 126 127 138 145 153 159 160 159 158 157 148 141 132 130 127 124 121 118 123 129 132 132 133 134 134 134 136 137 137 135 136
129 131 167 164 147 140 129 126 124 111 110 110 114 125 135 134 131 134 141 147 152 158 166 165 160 164 168 163 149 150 142 146 144 143 139 139 144 152 146 146 150 151 150 151 158 164 164 166 180
132 139 144 137 139 133 130 128 118 122 128 142 143 147 143 139 140 144 147 150 158 163 163 166 166 167 167 153 151 162 164 162 166 169 165 165 163 166 159 165 166 165 164 172 181 208 221 227 234
113 127 128 134 134 128 132 130 119 132 150 152 149 150 147 148 153 155 150 150 151 151 156 159 160 153 157 148 159 170 175 174 179 179 174 168 161 163 169 181 183 187 195 194 213 241 245 252 247
112 122 120 125 123 125 122 126 123 134 143 147 148 148 151 155 157 159 153 146 146 146 147 151 146 141 140 138 162 165 181 182 182 172 168 163 157 158 170 181 185 193 195 192 195 225 243 244 241
138 123 121 124 125 129 124 126 119 145 149 150 153 158 161 160 158 153 149 146 146 148 148 148 141 138 133 133 146 159 173 183 176 171 169 163 159 158 156 157 177 194 190 189 195 203 206 209 191
118 107 98 124 124 131 117 116 145 156 154 155 161 164 165 164 160 161 162 159 155 154 153 152 151 143 136 138 141 146 166 171 173 178 168 159 159 160 156 153 179 202 192 184 182 191 173 162 135
74 83 125 205 143 148 121 152 170 161 157 162 169 169 169 170 168 166 163 161 156 153 155 159 155 150 149 146 133 134 154 159 175 179 171 165 160 158 152 151 181 187 169 163 157 147 124 118 113
53 148 189 214 182 156 130 165 179 171 162 169 172 171 170 169 169 168 166 164 159 159 158 159 150 156 159 155 144 139 138 154 170 169 172 174 169 164 158 161 188 171 139 141 172 138 151 148 145
221 198 200 201 197 158 153 175 173 177 171 174 176 175 171 172 176 172 166 164 160 160 160 158 156 161 156 145 124 101 100 137 156 168 178 171 176 170 159 161 170 156 131 144 146 150 147 158 158
201 201 212 225 180 154 169 171 179 178 178 178 179 181 180 180 176 168 166 164 160 161 161 160 159 167 152 142 145 147 173 186 178 190 187 173 170 164 155 161 155 148 158 190 181 162 144 146 127
213 187 186 197 150 138 160 183 184 182 186 185 184 185 185 177 171 171 169 169 169 170 169 165 166 171 169 170 170 170 168 185 195 196 184 186 176 171 167 159 169 160 162 167 164 147 154 192 158
235 182 179 178 92 82 108 166 199 203 194 192 192 188 186 183 179 178 176 176 172 175 177 176 173 171 174 170 151 128 85 55 60 163 197 202 177 181 175 169 166 171 165 183 198 168 165 187 221
235 206 168 151 121 197 126 190 256 213 208 199 199 194 191 190 183 180 179 179 180 183 179 175 173 172 172 164 160 160 167 184 207 200 198 206 181 175 169 160 157 164 163 176 199 170 172 162 194
197 160 136 133 130 102 48 140 265 219 207 212 206 202 196 190 185 185 185 184 184 180 176 175 171 172 172 169 170 168 178 191 188 167 163 182 192 178 160 152 151 159 158 165 163 143 153 161 179
149 79 49 60 86 144 220 171 243 216 208 210 206 201 196 191 188 189 188 180 179 177 175 173 172 177 176 175 177 178 183 181 170 176 174 174 174 181 158 135 151 166 158 159 166 163 155 164 171
105 96 46 8 19 242 227 178 236 227 211 204 198 201 197 190 186 187 185 183 182 179 178 176 175 181 183 181 185 187 185 180 181 184 180 170 169 191 203 167 165 164 172 165 148 142 147 164 188
177 136 155 190 206 257 288 225 252 232 207 193 183 185 179 182 186 190 190 187 185 182 179 177 180 185 186 185 189 189 183 178 182 183 173 175 183 192 185 158 143 140 139 140 129 128 158 147 156
162 167 167 148 164 151 268 280 308 287 193 171 164 169 177 181 182 190 191 188 184 182 182 180 181 184 186 186 181 183 182 178 179 178 169 169 176 176 159 146 136 132 125 129 123 111 142 125 129
168 157 105 125 153 202 265 256 226 235 217 193 178 176 184 178 174 183 190 188 185 184 181 178 180 185 186 185 183 186 185 183 177 168 169 171 175 159 144 137 128 114 100 105 111 107 55 92 57
181 127 121 129 152 154 199 260 224 200 192 189 190 182 174 176 175 179 186 178 176 172 172 175 178 178 180 184 186 183 181 179 171 168 166 164 163 150 144 135 125 119 107 101 106 127 101 98 65
175 175 148 153 200 164 167 249 237 194 195 186 185 180 163 167 170 170 168 162 163 166 170 175 179 180 183 183 180 178 173 165 163 163 162 156 151 147 142 136 125 122 111 105 113 114 103 103 95
Height
1501 1501 1502 1503 1506 1516 1518 1513 1507 1508 1510 1512 1511 1512 1516 1519 1524 1534 1531 1530 1529 1528 1527 1526 1525 1524 1523 1521 1520 1518 1517 1516 1515 1515 1515 1516 1516 1517 1517 1518 1519 1521 1522 1523 1525 1527 1528 1530 1532
1502 1502 1503 1504 1514 1529 1523 1511 1510 1511 1513 1513 1514 1516 1518 1523 1525 1528 1530 1531 1530 1529 1528 1527 1527 1526 1525 1523 1522 1521 1520 1519 1518 1518 1518 1518 1519 1520 1520 1522 1523 1524 1525 1527 1528 1530 1531 1533 1535
1502 1503 1505 1507 1517 1524 1521 1511 1511 1512 1513 1512 1516 1518 1521 1525 1527 1529 1530 1531 1530 1530 1529 1529 1528 1528 1527 1526 1525 1524 1523 1522 1521 1521 1521 1521 1522 1523 1524 1525 1527 1528 1529 1530 1531 1533 1534 1536 1538
1503 1504 1506 1512 1517 1510 1509 1510 1510 1513 1515 1516 1517 1521 1525 1528 1528 1530 1531 1532 1532 1531 1531 1531 1530 1530 1529 1528 1527 1526 1525 1525 1524 1524 1524 1524 1525 1526 1527 1528 1530 1531 1532 1533 1535 1536 1537 1539 1541
1503 1504 1511 1518 1514 1508 1507 1508 1510 1512 1516 1519 1518 1524 1528 1530 1530 1531 1532 1533 1533 1532 1532 1532 1532 1532 1531 1531 1530 1529 1528 1528 1527 1527 1527 1527 1528 1529 1530 1532 1533 1534 1535 1536 1538 1539 1541 1542 1544
1503 1505 1520 1525 1516 1510 1509 1509 1511 1515 1519 1521 1522 1525 1530 1532 1532 1533 1534 1535 1535 1534 1534 1534 1534 1534 1533 1533 1532 1532 1531 1531 1530 1530 1530 1530 1531 1532 1534 1535 1536 1537 1538 1539 1540 1542 1544 1545 1547
1505 1509 1518 1518 1516 1514 1512 1511 1512 1516 1520 1522 1523 1526 1531 1533 1533 1534 1535 1536 1536 1536 1536 1536 1536 1536 1536 1535 1535 1535 1534 1534 1534 1533 1533 1533 1534 1536 1537 1538 1538 1539 1541 1542 1543 1545 1546 1548 1549
1502 1507 1515 1516 1516 1515 1511 1511 1513 1515 1520 1523 1524 1526 1531 1533 1534 1536 1537 1538 1538 1538 1538 1538 1538 1538 1538 1538 1537 1537 1537 1537 1537 1537 1537 1536 1538 1539 1540 1540 1541 1543 1544 1545 1546 1547 1549 1550 1551
1500 1511 1519 1515 1514 1513 1510 1512 1516 1517 1520 1523 1524 1526 1529 1533 1535 1536 1538 1539 1539 1540 1540 1540 1540 1540 1540 1540 1540 1540 1540 1540 1540 1540 1540 1540 1540 1541 1542 1543 1544 1545 1546 1547 1548 1550 1551 1552 1553
1498 1511 1510 1503 1504 1507 1509 1511 1515 1520 1521 1524 1527 1529 1532 1534 1535 1536 1538 1539 1540 1540 1541 1541 1541 1542 1542 1542 1542 1542 1542 1542 1542 1542 1543 1543 1543 1544 1545 1546 1546 1547 1548 1549 1550 1552 1553 1554 1555
1495 1502 1500 1501 1502 1505 1509 1512 1514 1518 1523 1524 1525 1529 1532 1534 1536 1537 1538 1539 1540 1541 1541 1542 1542 1543 1543 1543 1544 1544 1544 1544 1544 1544 1544 1545 1545 1546 1547 1547 1548 1549 1550 1551 1552 1553 1554 1555 1556
1494 1496 1498 1501 1503 1506 1509 1512 1516 1517 1522 1524 1525 1528 1531 1534 1535 1537 1538 1539 1540 1541 1542 1542 1543 1543 1544 1544 1545 1545 1545 1546 1546 1546 1546 1546 1547 1547 1548 1549 1549 1550 1552 1552 1553 1554 1555 1556 1556
1495 1497 1498 1501 1503 1506 1509 1512 1515 1519 1522 1525 1527 1530 1531 1533 1535 1537 1538 1539 1540 1541 1542 1543 1543 1544 1544 1545 1545 1546 1546 1547 1547 1547 1547 1548 1548 1549 1549 1550 1551 1552 1553 1554 1554 1555 1556 1556 1556
1497 1497 1499 1502 1504 1507 1510 1514 1516 1521 1523 1526 1528 1530 1531 1533 1535 1537 1538 1539 1540 1541 1542 1543 1544 1544 1545 1545 1546 1546 1547 1547 1548 1548 1549 1549 1550 1550 1550 1551 1552 1552 1553 1553 1554 1555 1555 1556 1556
1496 1500 1503 1504 1506 1510 1512 1520 1518 1520 1523 1525 1528 1529 1531 1533 1534 1536 1537 1538 1540 1541 1542 1543 1544 1545 1545 1546 1546 1547 1547 1548 1549 1549 1549 1550 1550 1551 1551 1551 1552 1552 1553 1553 1554 1554 1555 1555 1555
1500 1508 1515 1508 1506 1510 1516 1529 1520 1520 1522 1525 1527 1529 1531 1532 1534 1535 1536 1538 1539 1540 1542 1543 1544 1544 1545 1546 1546 1547 1547 1548 1549 1549 1550 1550 1551 1551 1551 1551 1552 1552 1552 1553 1553 1553 1553 1554 1554
1511 1521 1519 1510 1504 1508 1514 1524 1519 1520 1521 1523 1525 1527 1529 1531 1533 1534 1535 1537 1538 1540 1541 1542 1543 1544 1545 1545 1546 1547 1547 1548 1548 1549 1549 1550 1550 1550 1550 1551 1551 1551 1552 1552 1552 1552 1552 1552 1553
1520 1519 1515 1513 1504 1507 1513 1517 1516 1518 1520 1521 1524 1526 1527 1529 1531 1532 1534 1536 1537 1539 1540 1541 1542 1543 1544 1545 1546 1546 1547 1548 1548 1549 1549 1549 1549 1550 1550 1550 1550 1550 1551 1551 1551 1551 1551 1551 1551
1503 1509 1512 1507 1500 1507 1513 1515 1514 1515 1519 1520 1522 1524 1525 1527 1529 1531 1533 1535 1536 1538 1539 1540 1541 1543 1543 1544 1545 1545 1546 1547 1547 1548 1548 1549 1549 1549 1549 1549 1549 1549 1549 1549 1549 1549 1549 1549 1550
1499 1507 1510 1505 1499 1505 1513 1514 1511 1513 1514 1516 1518 1520 1523 1525 1528 1530 1532 1533 1534 1536 1537 1539 1540 1541 1542 1543 1544 1545 1546 1546 1547 1547 1547 1548 1548 1548 1548 1547 1548 1548 1548 1548 1547 1547 1547 1547 1548
1498 1504 1506 1508 1504 1505 1514 1522 1517 1513 1514 1516 1517 1518 1520 1522 1524 1527 1529 1531 1533 1534 1536 1537 1538 1540 1541 1542 1543 1544 1545 1545 1546 1546 1546 1546 1547 1547 1547 1546 1546 1546 1546 1545 1545 1545 1545 1545 1545
1502 1491 1494 1500 1514 1525 1520 1540 1524 1516 1514 1514 1515 1516 1517 1520 1521 1524 1526 1528 1530 1532 1534 1536 1537 1538 1540 1541 1542 1542 1543 1544 1544 1545 1545 1546 1546 1546 1546 1545 1545 1544 1544 1544 1543 1543 1543 1543 1542
1491 1485 1491 1499 1513 1525 1524 1536 1529 1516 1517 1512 1511 1512 1514 1516 1518 1520 1523 1525 1528 1530 1532 1534 1536 1537 1538 1539 1540 1541 1542 1543 1544 1544 1544 1545 1545 1545 1545 1544 1543 1543 1542 1542 1541 1541 1541 1540 1540
1482 1489 1498 1510 1522 1539 1528 1534 1533 1519 1510 1506 1506 1508 1511 1513 1515 1518 1521 1524 1526 1528 1531 1532 1534 1535 1537 1538 1539 1540 1541 1542 1542 1543 1543 1544 1544 1544 1543 1543 1542 1541 1541 1540 1540 1539 1539 1538 1538
1484 1508 1533 1538 1547 1543 1524 1528 1525 1504 1499 1499 1501 1504 1506 1509 1512 1515 1518 1520 1523 1525 1528 1530 1532 1533 1535 1536 1537 1538 1539 1540 1541 1541 1542 1542 1542 1542 1542 1542 1541 1540 1540 1539 1538 1538 1537 1537 1536
1488 1503 1532 1546 1550 1541 1526 1528 1511 1495 1494 1495 1497 1500 1502 1505 1508 1512 1514 1517 1519 1522 1525 1528 1529 1531 1532 1533 1535 1536 1537 1538 1539 1540 1541 1541 1541 1541 1541 1541 1540 1539 1538 1538 1537 1536 1535 1535 1534
1487 1497 1500 1523 1532 1540 1534 1520 1504 1493 1492 1494 1497 1499 1501 1503 1505 1509 1511 1515 1517 1520 1522 1524 1527 1529 1530 1531 1532 1534 1536 1537 1538 1539 1540 1540 1540 1540 1540 1540 1539 1538 1537 1536 1535 1534 1534 1533 1533
1475 1485 1506 1522 1540 1546 1536 1527 1518 1503 1497 1494 1496 1497 1499 1501 1503 1506 1509 1512 1515 1517 1520 1523 1525 1527 1528 1530 1531 1532 1534 1535 1537 1538 1538 1538 1539 1539 1539 1538 1538 1537 1536 1535 1534 1533 1532 1532 1531
1480 1486 1499 1515 1521 1538 1544 1531 1497 1495 1492 1491 1492 1493 1495 1498 1500 1504 1506 1509 1512 1515 1518 1521 1523 1525 1527 1528 1530 1531 1532 1534 1535 1536 1536 1537 1537 1537 1537 1537 1536 1535 1534 1533 1533 1532 1531 1530 1530
1473 1481 1495 1513 1520 1523 1531 1523 1485 1486 1486 1486 1488 1490 1491 1495 1498 1501 1504 1507 1509 1512 1515 1518 1521 1523 1525 1527 1528 1530 1531 1532 1533 1534 1535 1535 1536 1536 1536 1536 1535 1534 1533 1532 1531 1530 1530 1529 1528